User: anonymous   Login
Location: Unspecified
(0.0000°N, 0.0000°E)
Time: 03:34:10
(UTC+00:00)
Language:

QB50P2 - Orbit

View from above orbital plane
View from above orbital plane
View from above satellite
View from above satellite

Ground track
Ground track

The orbit data is extracted from the following two-line orbital elements,

1 40032U 14033Y   18017.69667532  .00000263  00000-0  34568-4 0  9992
2 40032  97.9057 292.2612 0011069 321.2098  38.8323 14.88167990194345
Epoch (UTC): 17 January 2018 16:43:12
Eccentricity: 0.0011069
inclination: 97.9057°
perigee height: 596 km
apogee height: 611 km
right ascension of ascending node: 292.2612°
argument of perigee: 321.2098°
revolutions per day: 14.88167990
mean anomaly at epoch: 38.8323°
orbit number at epoch: 19434

The dashed part of the orbit path shows where the satellite is in the earth's shadow,  

DLR